Satellite: METEOR-M Catalog number: 35865 Epoch time: 11202.70360566 Element set: 567 Inclination: 098.7046 deg RA of node: 257.3821 deg Eccentricity: 0.0002196 Arg of perigee: 313.7895 deg Mean anomaly: 046.3058 deg Mean motion: 14.21840470 rev/day Decay rate: 1.76e-06 rev/day^2 Epoch rev: 9549 Checksum: 308
Satellite: RS-38 Catalog number: 35869 Epoch time: 11202.69941451 Element set: 560 Inclination: 098.7017 deg RA of node: 257.4120 deg Eccentricity: 0.0004260 Arg of perigee: 303.7481 deg Mean anomaly: 056.3254 deg Mean motion: 14.22016829 rev/day Decay rate: 1.77e-06 rev/day^2 Epoch rev: 9550 Checksum: 293
/EX